Home   Weather   49°36'N, 9°28'E   Past weeks
Flag for Germany

Past Weather in 49°36'N, 9°28'E, Germany — Yesterday and Last 2 Weeks

Now
77 °F

Scattered clouds.


Feels Like: 78 °F
Forecast: 78 / 57 °F
Wind: 13 mph from West

Location: Niederstetten

Current Time: Jul 18, 2019 at 5:22:34 pm

Latest Report: Jul 18, 2019 at 4:20 pm


Visibility: N/A

Pressure: 29.92 "Hg

Humidity: 32%

Dew Point: 45 °F

Location of 49°36'N, 9°28'ELocation

Past Weather in 49°36'N, 9°28'E — Graph

°F

49°36'N, 9°28'E Temperature Yesterday

Maximum temperature yesterday: 75 °F (at 2:20 pm)
Minimum temperature yesterday: 52 °F (at 6:20 am)
Average temperature yesterday: 65 °F

High & Low Weather Summary for the Past Weeks

 TemperatureHumidityPressure
High82 °F (Jul 6, 6:20 pm)100% (Jul 12, 3:20 am)30.24 "Hg (Jul 12, 3:20 am)
Low43 °F (Jul 10, 5:20 am)24% (Jul 6, 3:20 pm)29.80 "Hg (Jul 6, 7:20 pm)
Average62 °F66%30.02 "Hg
* Reported Jul 3 3:20 pm — Jul 18 3:20 pm, 49°36'N, 9°28'E. Weather by CustomWeather, © 2019

Note: Actual official high and low records may vary slightly from our data, if they occured in-between our weather recording intervals... More about our weather records

Advertising

49°36'N, 9°28'E Weather History for the Previous 24 Hours

Scroll right to see more
 ConditionsComfort  
Time TempWeatherWind HumidityBarometerVisibility
3:20 pm
Thu, Jul 18
77 °FScattered clouds.13 mph32%29.92 "HgN/A
2:20 pm75 °FScattered clouds.12 mph36%29.92 "HgN/A
1:20 pm75 °FPartly sunny.12 mph36%29.92 "HgN/A
12:20 pm73 °FPartly sunny.8 mph38%29.92 "HgN/A
11:20 am73 °FPartly sunny.5 mph44%29.92 "HgN/A
10:20 am72 °FPartly sunny.3 mph50%29.92 "HgN/A
9:20 am68 °FPartly sunny.2 mph64%29.92 "HgN/A
8:20 am63 °FPartly sunny.2 mph77%29.92 "HgN/A
7:20 am57 °FPartly sunny.2 mph88%29.92 "HgN/A
6:20 am52 °FBroken clouds.3 mph94%29.92 "HgN/A
5:20 am55 °FPassing clouds.1 mph88%29.92 "HgN/A
4:20 am52 °FPassing clouds.3 mph94%29.92 "HgN/A
3:20 am55 °FPassing clouds.2 mph88%29.92 "HgN/A
2:20 am54 °FPassing clouds.5 mph88%29.92 "HgN/A
1:20 am57 °FPassing clouds.No wind77%29.95 "HgN/A
12:20 am59 °FPassing clouds.6 mph72%29.95 "HgN/A
11:20 pm
Wed, Jul 17
61 °FPassing clouds.5 mph68%29.95 "HgN/A
10:20 pm66 °FPassing clouds.6 mph56%29.92 "HgN/A
9:20 pm68 °FPassing clouds.6 mph53%29.92 "HgN/A
8:20 pm72 °FPassing clouds.9 mph47%29.92 "HgN/A
7:20 pm75 °FPassing clouds.5 mph41%29.92 "HgN/A
6:20 pm75 °FPassing clouds.6 mph39%29.92 "HgN/A
5:20 pm75 °FScattered clouds.6 mph39%29.92 "HgN/A
Weather by CustomWeather, © 2019

See weather overview